Wind_Speed
15 15 14 13 12 12 11 10 10 9 9 8 8 8 8 8 7 7 7 7 7 8 8 8 8 9 9 9 9 9 9 9 9 10 10 10 10 10 10 10 10 10 10
17 16 16 15 14 13 13 12 12 11 11 10 10 10 10 9 9 9 9 9 9 9 9 9 9 9 9 9 10 10 10 11 11 11 11 12 12 12 12 12 12 12 12
19 18 17 17 16 15 14 14 14 13 12 12 12 12 12 12 11 11 11 11 10 10 10 11 11 10 11 11 11 11 11 12 12 13 13 13 13 13 13 13 14 14 14
22 20 19 18 17 17 16 15 15 14 14 14 13 13 14 14 14 14 13 13 13 13 13 13 13 13 13 13 13 13 13 13 14 14 14 14 15 15 15 15 15 15 15
23 22 21 20 18 17 17 16 15 15 15 15 14 14 14 14 15 15 14 14 14 15 15 15 15 15 15 15 15 15 15 16 16 16 16 16 16 16 17 17 17 17 17
24 24 23 22 20 19 17 17 16 16 15 15 15 15 15 15 15 15 15 15 15 15 16 16 17 17 17 17 18 18 18 18 18 18 18 18 18 18 18 18 19 19 19
25 24 24 23 21 20 19 18 18 17 16 16 16 16 16 16 16 16 17 17 17 17 17 17 18 18 18 18 19 19 19 19 20 20 20 20 20 20 20 21 21 21 21
26 25 25 24 23 21 20 19 19 19 18 18 18 17 18 18 18 18 18 19 19 19 19 19 19 20 20 20 20 20 21 21 22 22 22 22 22 22 22 22 23 23 23
27 27 26 25 24 23 22 21 21 20 20 20 20 20 20 19 19 19 20 20 20 21 21 21 21 21 21 22 22 22 22 23 23 23 24 24 24 24 24 24 24 24 24
28 27 26 25 25 24 23 23 22 22 22 22 21 21 21 21 21 21 22 22 22 22 22 22 22 23 23 23 24 24 24 24 25 25 25 25 26 26 26 26 26 25 26
28 28 27 26 25 25 24 24 23 23 23 23 23 22 22 22 23 23 23 23 23 23 23 23 24 24 25 25 25 25 25 25 25 26 26 27 27 27 27 27 27 27 27
29 28 28 27 26 25 25 25 25 24 24 24 24 24 24 24 24 24 25 25 25 25 25 26 26 26 26 26 26 26 26 26 26 26 27 27 28 28 28 28 28 29 28
29 29 28 27 26 26 26 26 26 25 25 25 25 25 25 25 25 25 26 26 26 27 27 28 28 28 28 28 28 27 27 27 27 27 27 28 28 28 28 29 29 30 30
29 29 28 27 27 26 26 27 27 26 26 26 26 26 26 26 26 26 26 27 27 27 28 28 29 29 29 29 29 29 29 29 29 29 29 29 29 30 30 30 31 31 32
29 29 29 28 28 28 28 28 28 28 28 28 27 26 26 26 27 27 27 27 27 28 29 29 29 30 30 31 31 31 31 31 31 31 31 31 31 31 32 32 33 33 34
29 29 29 29 29 29 29 30 29 29 29 28 27 27 27 27 28 28 29 29 29 30 30 30 30 31 32 32 32 32 32 32 32 32 33 33 33 34 34 35 35 36 36
29 30 30 30 30 30 30 30 29 29 29 28 28 28 28 28 29 29 29 30 31 31 31 32 32 32 33 33 33 33 33 33 33 34 34 35 35 35 36 36 37 38 38
29 30 30 31 31 31 30 30 29 29 28 28 29 29 29 29 30 30 30 31 32 32 32 32 33 33 33 33 33 33 33 34 34 35 35 35 36 36 37 37 38 38 39
29 30 30 30 30 31 30 30 30 30 30 30 30 30 31 31 30 30 31 32 32 33 33 33 33 33 32 33 33 34 34 34 35 36 36 37 37 38 38 38 38 39 40
29 30 31 31 31 32 32 32 32 32 32 32 32 31 32 32 31 31 32 32 32 32 33 33 33 33 33 33 33 34 34 35 36 36 37 37 38 39 39 39 40 40 41
30 31 31 32 32 32 33 33 33 34 34 34 34 33 33 33 33 33 33 34 33 33 33 33 33 33 34 34 34 35 35 36 36 36 37 37 38 38 39 40 40 40 41
30 31 31 32 32 33 33 34 35 35 35 35 35 35 35 35 35 35 34 34 34 34 34 34 34 35 34 34 35 35 36 36 37 37 37 38 38 38 39 39 39 39 40
31 32 32 33 33 34 34 35 35 36 37 37 37 36 36 36 36 36 35 35 35 35 35 35 35 36 36 36 36 36 37 37 38 38 38 38 39 39 39 40 40 40 41
32 33 34 34 34 34 35 35 36 36 36 37 37 37 37 37 36 36 36 36 36 36 36 36 36 36 37 37 38 38 38 38 38 38 39 39 40 40 41 41 41 41 42
32 33 34 35 35 35 35 36 37 38 38 38 37 38 38 38 36 35 36 36 37 37 37 37 38 38 38 39 39 39 38 38 38 38 38 39 40 40 41 42 42 43 43
33 34 34 35 36 36 36 36 37 37 38 38 38 38 38 38 38 37 35 35 36 37 38 38 38 39 39 38 38 38 38 38 39 39 40 40 40 41 42 43 43 44 44
Wind_Direction
231 230 230 229 230 231 232 234 236 241 248 257 264 268 271 273 276 279 281 282 282 281 282 283 283 285 284 284 282 281 280 278 277 277 278 278 280 280 279 278 278 278 278
232 230 231 231 231 234 235 237 239 242 248 254 261 266 269 270 272 275 277 280 282 282 283 283 283 284 284 285 282 281 282 280 278 276 276 277 278 279 279 279 279 279 278
232 230 232 233 234 235 236 239 241 245 250 253 258 263 266 268 271 273 275 278 279 280 281 282 282 283 284 284 283 282 282 282 282 280 279 278 278 277 278 278 279 279 279
231 231 232 234 236 236 237 239 241 244 248 252 257 261 264 267 270 272 274 275 276 277 279 280 280 281 282 283 282 282 282 283 283 282 282 280 278 277 277 277 277 277 278
230 232 233 234 236 237 237 238 241 243 247 251 255 259 263 267 270 272 273 275 276 277 278 279 280 280 281 282 282 282 282 282 282 281 282 281 280 277 276 275 275 276 277
230 231 233 234 237 238 238 239 241 244 246 251 255 259 263 266 269 271 274 276 277 278 279 280 280 281 281 281 281 281 281 281 281 280 281 280 279 278 277 276 276 276 277
228 230 232 235 236 239 240 239 242 245 248 252 256 260 263 266 270 272 273 275 277 278 279 280 280 281 281 281 280 280 280 280 281 281 280 279 279 278 277 276 276 276 276
228 229 232 235 237 239 241 240 242 245 249 253 258 262 265 267 270 272 274 275 277 278 279 280 281 281 281 282 281 281 281 281 281 280 279 279 278 278 278 277 276 276 276
227 229 231 235 237 239 241 243 245 247 251 255 259 262 265 267 270 272 274 276 277 278 279 280 281 281 281 281 281 282 282 282 281 281 280 279 278 277 277 277 277 277 277
228 229 232 235 238 240 242 245 247 249 252 256 259 262 265 267 270 272 274 277 278 278 279 280 281 281 281 281 282 282 282 281 281 281 280 280 279 278 278 277 277 277 277
229 230 232 235 239 241 242 245 249 251 253 256 259 261 264 266 269 272 274 276 277 278 279 280 281 282 282 283 283 282 282 282 281 281 281 281 280 279 278 277 276 276 277
229 231 233 236 239 241 243 246 250 252 254 257 259 262 264 267 269 271 273 274 275 277 278 280 281 282 282 282 282 282 282 282 282 282 281 281 280 279 278 278 277 276 276
231 232 234 237 239 241 245 248 251 253 255 258 261 263 265 267 269 271 272 274 275 277 278 280 280 280 280 280 281 282 282 283 283 283 282 280 280 279 279 278 278 278 277
232 233 235 237 240 243 247 250 253 255 256 259 262 265 266 268 269 271 273 275 277 278 280 280 280 280 280 280 280 281 281 282 282 281 281 280 279 279 279 280 280 280 279
232 234 236 238 242 245 248 250 254 256 258 260 263 265 266 267 270 271 273 275 276 278 280 281 281 280 280 280 280 280 280 280 280 280 280 279 278 278 279 279 278 279 280
233 235 237 239 243 247 248 250 253 257 259 261 263 264 266 269 270 272 273 274 276 278 280 281 281 281 281 281 280 280 280 279 279 280 279 278 277 278 279 278 278 278 279
234 236 238 241 244 247 249 252 254 257 260 261 262 264 267 269 271 272 272 274 276 279 280 281 281 281 282 281 280 279 280 280 280 280 279 279 278 278 279 279 278 278 279
235 237 239 242 245 248 250 252 255 257 260 262 264 266 269 270 272 272 274 276 277 278 279 281 281 281 281 280 280 280 280 281 281 281 281 280 280 280 280 280 279 279 279
237 238 240 242 245 248 251 253 255 257 259 263 265 267 268 271 273 274 276 277 279 279 280 280 281 281 281 281 281 281 281 281 282 281 281 281 281 281 280 280 280 279 279
238 240 242 245 247 250 252 254 256 259 260 263 266 268 269 270 273 275 276 278 279 280 280 281 281 280 281 281 281 282 282 283 283 283 282 282 282 282 282 281 280 279 279
240 242 245 247 250 253 254 257 259 260 262 264 265 268 269 271 272 274 276 277 277 278 279 280 281 281 280 280 281 282 282 283 283 283 283 283 283 283 282 282 281 281 279
241 244 247 250 252 254 256 258 260 262 263 264 265 267 269 271 273 273 275 276 276 276 277 278 279 279 281 282 283 282 283 284 284 284 283 283 283 283 283 282 282 282 281
245 247 249 252 255 257 258 259 261 263 264 265 266 268 269 272 273 273 274 274 275 275 276 277 278 279 281 282 283 283 283 283 284 285 284 284 284 283 283 282 282 282 282
247 250 251 253 256 257 258 260 261 262 264 265 267 269 269 271 272 272 273 273 274 275 276 276 278 279 280 282 283 283 283 284 284 283 284 284 283 283 283 282 281 281 280
249 251 252 254 256 258 259 261 262 263 264 266 267 268 269 271 272 272 272 273 274 275 276 276 277 278 280 282 284 285 284 286 286 285 284 284 284 283 282 282 281 281 281
251 252 253 255 257 258 260 261 262 264 265 266 267 269 270 272 272 273 273 274 275 275 276 277 277 278 280 282 284 284 285 286 287 286 284 284 283 284 283 283 282 282 282
Height
5872 5873 5874 5875 5876 5877 5878 5879 5880 5881 5882 5883 5883 5884 5884 5884 5884 5884 5884 5884 5884 5884 5883 5883 5883 5882 5882 5882 5881 5881 5881 5880 5880 5879 5879 5878 5878 5877 5877 5876 5876 5875 5875
5869 5870 5872 5873 5874 5876 5877 5878 5879 5880 5881 5881 5882 5882 5882 5883 5883 5883 5883 5883 5883 5882 5882 5882 5881 5881 5881 5880 5880 5879 5879 5878 5878 5878 5877 5877 5876 5876 5875 5875 5874 5874 5873
5866 5868 5869 5871 5872 5874 5875 5876 5877 5878 5879 5879 5880 5880 5881 5881 5881 5881 5881 5881 5881 5881 5881 5880 5880 5880 5879 5879 5878 5878 5877 5877 5876 5876 5875 5875 5874 5874 5873 5873 5872 5871 5871
5863 5865 5867 5868 5870 5871 5872 5874 5875 5876 5877 5877 5878 5879 5879 5879 5879 5879 5879 5879 5879 5879 5879 5878 5878 5878 5877 5877 5876 5876 5875 5875 5874 5873 5873 5872 5872 5871 5871 5870 5870 5869 5868
5859 5861 5864 5866 5867 5868 5870 5871 5872 5873 5874 5875 5876 5876 5877 5877 5877 5877 5877 5877 5877 5877 5876 5876 5876 5875 5875 5874 5874 5873 5873 5872 5871 5871 5870 5870 5869 5869 5868 5867 5867 5866 5866
5856 5858 5860 5862 5864 5866 5867 5868 5869 5871 5872 5872 5873 5874 5874 5874 5874 5874 5874 5874 5874 5874 5874 5873 5873 5873 5872 5872 5871 5870 5870 5869 5868 5868 5867 5867 5866 5865 5865 5864 5864 5863 5862
5852 5854 5856 5859 5861 5863 5864 5865 5867 5868 5869 5870 5871 5871 5871 5872 5872 5872 5872 5872 5871 5871 5871 5870 5870 5869 5869 5868 5868 5867 5866 5866 5865 5864 5864 5863 5863 5862 5861 5861 5860 5859 5859
5848 5850 5853 5855 5857 5859 5861 5862 5863 5865 5866 5867 5867 5868 5868 5869 5869 5869 5869 5868 5868 5868 5867 5867 5866 5866 5865 5865 5864 5863 5863 5862 5861 5860 5860 5859 5859 5858 5857 5857 5856 5855 5854
5843 5846 5849 5851 5853 5855 5857 5859 5860 5861 5862 5863 5864 5864 5865 5865 5865 5865 5865 5865 5864 5864 5864 5863 5862 5862 5861 5860 5860 5859 5858 5858 5857 5856 5855 5855 5854 5853 5853 5852 5851 5851 5850
5839 5842 5845 5847 5849 5851 5853 5855 5856 5857 5858 5859 5860 5861 5861 5861 5861 5861 5861 5861 5860 5860 5859 5859 5858 5857 5857 5856 5855 5854 5854 5853 5852 5851 5851 5850 5849 5848 5848 5847 5846 5846 5845
5834 5837 5840 5843 5845 5847 5849 5851 5852 5853 5854 5855 5856 5857 5857 5857 5857 5857 5857 5857 5856 5856 5855 5854 5854 5853 5852 5851 5850 5849 5849 5848 5847 5846 5845 5844 5844 5843 5842 5841 5841 5840 5839
5830 5833 5836 5838 5841 5843 5845 5846 5848 5849 5850 5851 5851 5852 5853 5853 5853 5853 5852 5852 5851 5851 5850 5849 5849 5848 5847 5846 5845 5844 5843 5842 5842 5841 5840 5839 5838 5837 5836 5835 5834 5834 5833
5825 5828 5831 5834 5836 5838 5840 5841 5843 5844 5845 5846 5847 5847 5848 5848 5848 5847 5847 5847 5846 5846 5845 5844 5843 5842 5841 5840 5840 5839 5838 5837 5836 5835 5834 5833 5832 5831 5830 5829 5828 5827 5827
5820 5823 5826 5829 5831 5833 5835 5836 5838 5839 5840 5841 5841 5842 5842 5842 5842 5842 5842 5841 5841 5840 5839 5838 5837 5836 5835 5834 5833 5832 5832 5831 5829 5828 5827 5826 5825 5824 5823 5823 5822 5821 5820
5815 5818 5821 5824 5826 5828 5830 5831 5832 5833 5834 5835 5836 5836 5836 5837 5837 5836 5836 5836 5835 5834 5833 5832 5831 5830 5829 5828 5827 5826 5825 5824 5823 5821 5820 5819 5818 5817 5816 5815 5815 5814 5813
5810 5813 5816 5818 5821 5823 5824 5825 5827 5828 5828 5829 5830 5830 5831 5831 5831 5830 5830 5829 5829 5828 5827 5825 5824 5823 5822 5821 5820 5819 5818 5817 5816 5814 5813 5812 5811 5810 5809 5808 5807 5806 5805
5805 5808 5810 5813 5815 5817 5818 5819 5820 5822 5822 5823 5824 5824 5824 5824 5824 5824 5823 5823 5822 5821 5820 5819 5817 5816 5815 5814 5813 5812 5810 5809 5808 5807 5805 5804 5803 5802 5801 5800 5799 5798 5796
5800 5802 5805 5807 5809 5811 5812 5814 5815 5816 5816 5817 5817 5818 5818 5817 5817 5817 5817 5816 5815 5814 5813 5812 5811 5809 5808 5807 5805 5804 5803 5802 5800 5799 5797 5796 5795 5794 5792 5791 5790 5789 5787
5794 5797 5799 5801 5803 5805 5806 5807 5809 5810 5810 5810 5811 5811 5811 5810 5810 5810 5810 5809 5808 5807 5806 5805 5803 5802 5801 5799 5798 5796 5795 5794 5792 5790 5789 5788 5786 5785 5783 5782 5781 5780 5778
5789 5791 5793 5795 5797 5799 5800 5801 5802 5803 5804 5804 5804 5804 5804 5803 5803 5803 5802 5802 5801 5800 5798 5797 5796 5794 5793 5792 5790 5789 5787 5786 5784 5782 5780 5779 5777 5776 5774 5773 5771 5770 5769
5783 5785 5787 5789 5791 5792 5794 5795 5796 5796 5797 5797 5797 5797 5797 5796 5796 5795 5795 5794 5793 5792 5791 5790 5788 5787 5785 5784 5782 5781 5779 5777 5775 5773 5771 5770 5768 5767 5765 5763 5762 5760 5759
5777 5779 5781 5783 5784 5786 5787 5788 5788 5789 5789 5789 5790 5789 5789 5788 5788 5787 5787 5786 5785 5784 5783 5782 5780 5779 5777 5775 5774 5772 5771 5770 5767 5765 5763 5761 5759 5757 5756 5754 5752 5750 5749
5771 5773 5775 5776 5777 5778 5779 5780 5781 5781 5781 5781 5781 5781 5780 5780 5779 5779 5778 5777 5776 5775 5774 5773 5772 5771 5769 5767 5766 5764 5763 5761 5758 5756 5754 5751 5749 5748 5746 5744 5742 5741 5739
5765 5766 5768 5769 5770 5771 5772 5773 5773 5773 5773 5773 5773 5772 5772 5771 5771 5770 5770 5769 5768 5767 5766 5765 5763 5762 5760 5759 5757 5755 5753 5751 5750 5748 5745 5742 5740 5738 5736 5734 5732 5730 5728
5758 5760 5761 5762 5762 5763 5764 5765 5765 5765 5765 5765 5764 5764 5763 5762 5762 5761 5760 5760 5759 5758 5757 5756 5754 5753 5751 5750 5748 5746 5744 5742 5739 5738 5736 5733 5730 5727 5725 5723 5721 5719 5717
5751 5752 5753 5754 5755 5755 5756 5756 5756 5757 5756 5756 5756 5755 5755 5754 5753 5752 5752 5751 5750 5749 5747 5746 5745 5744 5742 5740 5738 5736 5734 5732 5730 5727 5725 5723 5720 5717 5714 5712 5710 5708 5705